Weather History for Vacaville, CA

Change the Weather History Date:

Friday, March 22, 2013

  Actual Average Record
Temperature  
Mean Temperature 57 °F -  
Max Temperature 68 °F 68 °F 77 °F (2004)
Min Temperature 48 °F 42 °F 30 °F (1973)
Degree Days  
Heating Degree Days 8    
Growing Degree Days 7 (Base 50)    
Moisture  
Dew Point 16 °F    
Average Humidity 19    
Maximum Humidity 33    
Minimum Humidity 14    
Precipitation  
Precipitation 0.00 in - - ()
Sea Level Pressure  
Sea Level Pressure 30.07 in    
Wind  
Wind Speed 13 mph (NNW)    
Max Wind Speed 22 mph    
Max Gust Speed 32 mph    
Visibility 10 miles    
Events      
Averages and records for this station are not official NWS values.
T = Trace of Precipitation, MM = Missing Value Source: NWS Daily Summary

Daily Weather History Graph

Daily Weather History Graph

Search for Another Location

Airport:

Trip Planner

Search our weather history database for the weather conditions in past years. The results will help you decide how hot, cold, wet, or windy it might be!

Date:

Astronomy

Mar. 22, 2013 Rise Set
Actual Time 7:07 AM PDT 7:22 PM PDT
Civil Twilight 6:41 AM PDT 7:48 PM PDT
Nautical Twilight 6:10 AM PDT 8:19 PM PDT
Astronomical Twilight 5:38 AM PDT 8:51 PM PDT
Moon 2:57 PM PDT (3/22) 4:08 AM PDT (3/22)
Length of Visible Light 13h 07m
Length of Day
12h 14m
Waxing Gibbous, 78% of the Moon is Illuminated
Mar 22
Waxing Gibbous
Mar 27
Full
Apr 2
Last Quarter
Apr 10
New
Apr 18
First Quarter

Hourly Weather History & Observations

Time (PDT) Temp. Dew Point Humidity Pressure Visibility Wind Dir Wind Speed Gust Speed Precip Events Conditions
12:53 AM 55.0 °F 26.1 °F 33% 30.04 in 10.0 mi North 8.1 mph - N/A   Clear
1:53 AM 55.0 °F 23.0 °F 29% 30.05 in 10.0 mi North 12.7 mph 19.6 mph N/A   Clear
2:53 AM 54.0 °F 19.9 °F 26% 30.05 in 10.0 mi North 11.5 mph 19.6 mph N/A   Clear
3:53 AM 54.0 °F 15.1 °F 22% 30.05 in 10.0 mi NNW 15.0 mph 21.9 mph N/A   Clear
4:53 AM 54.0 °F 12.0 °F 19% 30.06 in 10.0 mi North 17.3 mph 27.6 mph N/A   Clear
5:53 AM 53.1 °F 12.0 °F 20% 30.06 in 10.0 mi North 19.6 mph 32.2 mph N/A   Clear
6:53 AM 48.9 °F 14.0 °F 25% 30.08 in 10.0 mi North 11.5 mph 20.7 mph N/A   Clear
7:53 AM 51.1 °F 12.0 °F 21% 30.09 in 10.0 mi North 8.1 mph - N/A   Clear
8:53 AM 55.0 °F 14.0 °F 20% 30.11 in 10.0 mi North 8.1 mph 20.7 mph N/A   Clear
9:53 AM 57.9 °F 14.0 °F 18% 30.12 in 10.0 mi North 19.6 mph 25.3 mph N/A   Clear
10:53 AM 61.0 °F 17.1 °F 18% 30.12 in 10.0 mi North 11.5 mph 23.0 mph N/A   Clear
11:53 AM 63.0 °F 12.9 °F 14% 30.12 in 10.0 mi North 11.5 mph 23.0 mph N/A   Clear
12:53 PM 64.0 °F 15.1 °F 15% 30.12 in 10.0 mi NNW 21.9 mph 27.6 mph N/A   Clear
1:53 PM 64.9 °F 14.0 °F 14% 30.10 in 10.0 mi NNW 18.4 mph 25.3 mph N/A   Clear
2:53 PM 66.9 °F 15.1 °F 14% 30.07 in 10.0 mi North 13.8 mph 21.9 mph N/A   Clear
3:53 PM 66.9 °F 17.1 °F 15% 30.05 in 10.0 mi North 16.1 mph 24.2 mph N/A   Clear
4:53 PM 66.9 °F 16.0 °F 14% 30.05 in 10.0 mi North 10.4 mph 19.6 mph N/A   Clear
5:53 PM 64.9 °F 15.1 °F 15% 30.04 in 10.0 mi NNW 15.0 mph 21.9 mph N/A   Clear
6:53 PM 62.1 °F 15.1 °F 16% 30.04 in 10.0 mi NNW 12.7 mph - N/A   Clear
7:53 PM 59.0 °F 18.0 °F 20% 30.05 in 10.0 mi NNW 9.2 mph 16.1 mph N/A   Clear
8:53 PM 59.0 °F 17.1 °F 20% 30.06 in 10.0 mi NNW 15.0 mph 23.0 mph N/A   Clear
9:53 PM 57.9 °F 17.1 °F 20% 30.07 in 10.0 mi NNW 12.7 mph 19.6 mph N/A   Clear
10:53 PM 57.0 °F 17.1 °F 21% 30.08 in 10.0 mi NW 9.2 mph - N/A   Clear
11:53 PM 57.9 °F 15.1 °F 19% 30.09 in 10.0 mi NNW 11.5 mph - N/A   Clear